Time,TemperatureF,DewpointF,PressureIn,WindDirection,WindDirectionDegrees,WindSpeedMPH,WindSpeedGustMPH,Humidity,HourlyPrecipIn,Conditions,Clouds,dailyrainin,SolarRadiationWatts/m^2,SoftwareType,DateUTC
2013-01-06 13:43:00,33.0,33.0,30.03,NNW,340,15.0,-999.0,100,0.00,,,0.16,115.000000,,2013-01-06 21:43:00,
2013-01-06 13:53:00,33.0,33.0,30.03,NNW,340,15.0,-999.0,100,0.00,,,0.16,115.000000,,2013-01-06 21:53:00,
2013-01-06 14:02:00,33.0,33.0,30.03,NNW,340,15.0,-999.0,100,0.00,,,0.16,115.000000,,2013-01-06 22:02:00,
2013-01-06 14:12:00,33.0,33.0,30.03,NNW,340,15.0,-999.0,100,0.00,,,0.16,115.000000,,2013-01-06 22:12:00,
2013-01-06 14:33:00,33.0,33.0,30.04,NNW,348,15.0,22.0,100,0.01,,,-99.99,115.000000,,2013-01-06 22:33:00,
2013-01-06 14:43:00,33.0,33.0,30.04,NNW,348,15.0,22.0,100,0.01,,,-99.99,115.000000,,2013-01-06 22:43:00,
2013-01-06 14:52:00,33.0,33.0,30.04,NNW,348,15.0,22.0,100,0.01,,,-99.99,115.000000,,2013-01-06 22:52:00,
2013-01-06 15:02:00,33.0,33.0,30.04,NNW,348,15.0,22.0,100,0.01,,,-99.99,115.000000,,2013-01-06 23:02:00,
2013-01-06 15:12:00,33.0,33.0,30.04,NNW,348,15.0,22.0,100,0.01,,,-99.99,115.000000,,2013-01-06 23:12:00,
2013-01-06 15:33:00,33.0,33.0,30.05,North,349,18.0,24.0,99,0.00,,,0.17,112.000000,,2013-01-06 23:33:00,
2013-01-06 15:43:00,33.0,33.0,30.05,North,349,18.0,24.0,99,0.00,,,0.17,112.000000,,2013-01-06 23:43:00,
2013-01-06 15:53:00,33.0,33.0,30.05,North,349,18.0,24.0,99,0.00,,,0.17,112.000000,,2013-01-06 23:53:00,
2013-01-06 16:02:00,33.0,33.0,30.05,North,349,18.0,24.0,99,0.00,,,0.17,112.000000,,2013-01-07 00:02:00,
2013-01-06 16:12:00,33.0,33.0,30.05,North,349,18.0,24.0,99,0.00,,,0.17,112.000000,,2013-01-07 00:12:00,
2013-01-06 16:33:00,33.0,33.0,30.06,North,9,16.0,27.0,99,0.00,,,0.17,92.000000,,2013-01-07 00:33:00,
2013-01-06 16:43:00,33.0,33.0,30.06,North,9,16.0,27.0,99,0.00,,,0.17,92.000000,,2013-01-07 00:43:00,
2013-01-06 16:53:00,33.0,33.0,30.06,North,9,16.0,27.0,99,0.00,,,0.17,92.000000,,2013-01-07 00:53:00,
2013-01-06 17:02:00,33.0,33.0,30.06,North,9,16.0,27.0,99,0.00,,,0.17,92.000000,,2013-01-07 01:02:00,
2013-01-06 17:12:00,33.0,33.0,30.06,North,9,16.0,27.0,99,0.00,,,0.17,92.000000,,2013-01-07 01:12:00,
2013-01-06 17:43:00,33.0,33.0,30.06,North,2,17.0,23.0,100,0.00,,,0.17,84.000000,,2013-01-07 01:43:00,
2013-01-06 17:53:00,33.0,33.0,30.06,North,2,17.0,23.0,100,0.00,,,0.17,84.000000,,2013-01-07 01:53:00,
2013-01-06 18:02:00,33.0,33.0,30.06,North,2,17.0,23.0,100,0.00,,,0.17,84.000000,,2013-01-07 02:02:00,
2013-01-06 18:12:00,33.0,33.0,30.06,North,2,17.0,23.0,100,0.00,,,0.17,84.000000,,2013-01-07 02:12:00,
2013-01-06 18:43:00,33.0,33.0,30.06,NNW,327,19.0,21.0,99,0.00,,,0.17,46.000000,,2013-01-07 02:43:00,
2013-01-06 18:53:00,33.0,33.0,30.06,NNW,327,19.0,21.0,99,0.00,,,0.17,46.000000,,2013-01-07 02:53:00,
2013-01-06 19:02:00,33.0,33.0,30.06,NNW,327,19.0,21.0,99,0.00,,,0.17,46.000000,,2013-01-07 03:02:00,
2013-01-06 19:12:00,33.0,33.0,30.06,NNW,327,19.0,21.0,99,0.00,,,0.17,46.000000,,2013-01-07 03:12:00,
2013-01-06 19:33:00,33.0,33.0,30.07,NW,315,23.0,27.0,99,0.00,,,0.16,1.000000,,2013-01-07 03:33:00,
2013-01-06 19:43:00,33.0,33.0,30.07,NW,315,23.0,27.0,99,0.00,,,0.16,1.000000,,2013-01-07 03:43:00,
2013-01-06 19:53:00,33.0,33.0,30.07,NW,315,23.0,27.0,99,0.00,,,0.16,1.000000,,2013-01-07 03:53:00,
2013-01-06 20:02:00,33.0,33.0,30.07,NW,315,23.0,27.0,99,0.00,,,0.16,1.000000,,2013-01-07 04:02:00,
2013-01-06 20:12:00,33.0,33.0,30.07,NW,315,23.0,27.0,99,0.00,,,0.16,1.000000,,2013-01-07 04:12:00,
2013-01-06 20:42:00,35.0,35.0,30.08,NW,322,25.0,28.0,99,0.00,,,0.14,0.000000,,2013-01-07 04:42:00,
2013-01-06 20:52:00,35.0,35.0,30.08,NW,322,25.0,28.0,99,0.00,,,0.14,0.000000,,2013-01-07 04:52:00,
2013-01-06 21:02:00,35.0,35.0,30.08,NW,322,25.0,28.0,99,0.00,,,0.14,0.000000,,2013-01-07 05:02:00,
2013-01-06 21:12:00,35.0,35.0,30.08,NW,322,25.0,28.0,99,0.00,,,0.14,0.000000,,2013-01-07 05:12:00,
2013-01-06 21:43:00,34.0,34.0,30.10,NW,316,23.0,28.0,99,0.00,,,0.13,0.000000,,2013-01-07 05:43:00,
2013-01-06 21:53:00,34.0,34.0,30.10,NW,316,23.0,28.0,99,0.00,,,0.13,0.000000,,2013-01-07 05:53:00,
2013-01-06 22:02:00,34.0,34.0,30.10,NW,316,23.0,28.0,99,0.00,,,0.13,0.000000,,2013-01-07 06:02:00,
2013-01-06 22:12:00,34.0,34.0,30.10,NW,316,23.0,28.0,99,0.00,,,0.13,0.000000,,2013-01-07 06:12:00,
2013-01-06 22:42:00,36.0,36.0,30.09,NW,320,25.0,32.0,99,0.01,,,0.14,0.000000,,2013-01-07 06:42:00,
2013-01-06 22:52:00,36.0,36.0,30.09,NW,320,25.0,32.0,99,0.01,,,0.14,0.000000,,2013-01-07 06:52:00,
2013-01-06 23:02:00,36.0,36.0,30.09,NW,320,25.0,32.0,99,0.01,,,0.14,0.000000,,2013-01-07 07:02:00,
2013-01-06 23:11:00,36.0,36.0,30.09,NW,320,25.0,32.0,99,0.01,,,0.14,0.000000,,2013-01-07 07:11:00,
2013-01-06 23:43:00,36.0,31.0,30.09,NNW,339,26.0,31.0,82,0.00,,,0.13,0.000000,,2013-01-07 07:43:00,
2013-01-06 23:52:00,36.0,31.0,30.09,NNW,339,26.0,31.0,82,0.00,,,0.13,0.000000,,2013-01-07 07:52:00,